Date String (YYYY-MM-DD hh:mm:ss) UTC,Instrument flags,Ambient pressure (hPa),Sample flow (lpm),Bypass flow (lpm),Sample temperature (°C),Ambient temperature (°C),ASC tube jacket temperature (°C),LED temperature (°C),Box temperature (°C),Sample RH (%),Span deviation,Mass concentration (μg/m³),Mass concentration (μg/m³),Mass concentration (μg/m³)
DateTimeUTC,F1_M11,P_M11,Q1_M11,Q2_M11,T1_M11,T2_M11,T3_M11,T4_M11,T5_M11,U1_M11,ZSPAN_M11,X0_M11,X2_M11,X1_M11
2022-06-16 08:00:00,,0828.3,5.00,0.00,29.7,28.6,00.0,38.6,31.6,10.3,0000.0,0009.18,0003.34,0002.22
2022-06-16 08:01:00,,0828.3,5.00,0.00,29.7,28.6,00.0,38.6,31.6,10.3,0000.0,0009.32,0003.34,0002.23
2022-06-16 08:02:00,,0828.3,5.01,0.00,29.7,28.6,00.0,38.6,31.6,10.3,0000.0,0009.26,0003.36,0002.23
2022-06-16 08:03:00,,0828.3,4.99,0.00,29.7,28.6,00.0,38.6,31.6,10.2,0000.0,0009.41,0003.37,0002.24
2022-06-16 08:04:00,,0828.3,4.99,0.00,29.7,28.6,00.0,38.6,31.6,10.2,0000.0,0009.33,0003.37,0002.27
2022-06-16 08:05:00,,0828.3,5.00,0.00,29.8,28.7,00.0,38.6,31.7,10.2,0000.0,0009.25,0003.35,0002.28
2022-06-16 08:06:00,,0828.3,5.00,0.00,29.8,28.7,00.0,38.6,31.7,10.3,0000.0,0009.29,0003.38,0002.30
2022-06-16 08:07:00,,0828.3,5.00,0.00,29.8,28.7,00.0,38.6,31.7,10.3,0000.0,0009.02,0003.39,0002.32
2022-06-16 08:08:00,,0828.3,5.00,0.00,29.8,28.7,00.0,38.6,31.7,10.3,0000.0,0008.89,0003.38,0002.34
2022-06-16 08:09:00,,0828.3,5.00,0.00,29.8,28.7,00.0,38.6,31.7,10.4,0000.0,0009.16,0003.44,0002.35
2022-06-16 08:10:00,,0828.4,5.02,0.00,29.8,28.8,00.0,38.7,31.7,10.5,0000.0,0008.82,0003.47,0002.36
2022-06-16 08:11:00,,0828.3,5.00,0.00,29.8,28.8,00.0,38.7,31.7,10.5,0000.0,0008.77,0003.52,0002.38
2022-06-16 08:12:00,,0828.3,5.00,0.00,29.8,28.8,00.0,38.7,31.7,10.4,0000.0,0008.72,0003.56,0002.38
2022-06-16 08:13:00,,0828.3,5.00,0.00,29.8,28.8,00.0,38.7,31.8,10.3,0000.0,0008.73,0003.56,0002.37
2022-06-16 08:14:00,,0828.4,5.00,0.00,29.8,28.8,00.0,38.7,31.8,10.2,0000.0,0008.25,0003.56,0002.38
2022-06-16 08:15:00,,0828.4,4.99,0.00,29.8,28.8,00.0,38.7,31.7,10.1,0000.0,0008.19,0003.59,0002.37
2022-06-16 08:16:00,,0828.4,5.00,0.00,29.9,28.8,00.0,38.7,31.8,10.1,0000.0,0008.24,0003.54,0002.35
2022-06-16 08:17:00,,0828.4,5.00,0.00,29.9,28.8,00.0,38.7,31.7,10.0,0000.0,0008.26,0003.50,0002.34
2022-06-16 08:18:00,,0828.5,5.01,0.00,29.9,28.8,00.0,38.7,31.7,10.0,0000.0,0008.54,0003.47,0002.33
2022-06-16 08:19:00,,0828.5,5.00,0.00,29.9,28.9,00.0,38.7,31.7,10.1,0000.0,0008.32,0003.46,0002.33
2022-06-16 08:20:00,,0828.5,5.00,0.00,29.9,28.9,00.0,38.7,31.8,10.1,0000.0,0007.84,0003.44,0002.33
2022-06-16 08:21:00,,0828.5,5.00,0.00,29.9,28.9,00.0,38.8,31.8,10.2,0000.0,0007.74,0003.40,0002.32
2022-06-16 08:22:00,,0828.5,5.00,0.00,29.9,28.9,00.0,38.8,31.8,10.2,0000.0,0007.74,0003.33,0002.31
2022-06-16 08:23:00,,0828.5,5.00,0.00,29.9,28.9,00.0,38.8,31.8,10.2,0000.0,0007.73,0003.29,0002.31
2022-06-16 08:24:00,,0828.5,4.99,0.00,29.9,28.9,00.0,38.8,31.8,10.2,0000.0,0007.67,0003.28,0002.31
2022-06-16 08:25:00,,0828.5,5.00,0.00,29.9,28.9,00.0,38.8,31.8,10.2,0000.0,0007.82,0003.30,0002.31
2022-06-16 08:26:00,,0828.5,5.00,0.00,29.9,28.9,00.0,38.8,31.9,10.3,0000.0,0008.06,0003.31,0002.31
2022-06-16 08:27:00,,0828.5,5.01,0.00,30.0,28.9,00.0,38.8,31.9,10.3,0000.0,0008.29,0003.35,0002.31
2022-06-16 08:28:00,,0828.5,5.00,0.00,30.0,29.0,00.0,38.8,31.9,10.2,0000.0,0008.27,0003.33,0002.31
2022-06-16 08:29:00,,0828.4,5.00,0.00,30.0,29.0,00.0,38.8,31.9,10.2,0000.0,0007.83,0003.32,0002.31
2022-06-16 08:30:00,,0828.5,4.99,0.00,30.0,29.0,00.0,38.8,31.9,10.0,0000.0,0007.83,0003.35,0002.30
2022-06-16 08:31:00,,0828.4,4.99,0.00,30.0,29.0,00.0,38.8,31.9,10.0,0000.0,0007.79,0003.34,0002.29
2022-06-16 08:32:00,,0828.5,5.00,0.00,30.0,29.0,00.0,38.8,31.9,09.9,0000.0,0007.82,0003.35,0002.30
2022-06-16 08:33:00,,0828.4,5.00,0.00,30.0,29.0,00.0,38.9,31.9,09.9,0000.0,0007.83,0003.42,0002.29
2022-06-16 08:34:00,,0828.4,5.01,0.00,30.0,28.9,00.0,38.9,31.9,09.9,0000.0,0007.76,0003.44,0002.29
2022-06-16 08:35:00,,0828.5,5.01,0.00,30.0,28.9,00.0,38.9,31.9,09.9,0000.0,0007.86,0003.45,0002.31
2022-06-16 08:36:00,,0828.5,5.00,0.00,30.0,28.9,00.0,38.9,31.9,09.9,0000.0,0007.77,0003.44,0002.31
2022-06-16 08:37:00,,0828.5,4.98,0.00,30.0,28.9,00.0,38.9,31.9,09.9,0000.0,0007.47,0003.43,0002.32
2022-06-16 08:38:00,,0828.5,5.00,0.00,30.0,28.9,00.0,38.9,31.9,09.9,0000.0,0007.03,0003.40,0002.35
2022-06-16 08:39:00,,0828.9,5.00,0.00,30.0,28.9,00.0,38.9,31.9,10.0,0000.0,0007.19,0003.40,0002.36
2022-06-16 08:40:00,,0829.0,5.00,0.00,30.0,29.0,00.0,38.9,31.9,10.0,0000.0,0007.36,0003.42,0002.37
2022-06-16 08:41:00,,0829.1,5.01,0.00,30.0,29.0,00.0,38.9,31.9,10.1,0000.0,0007.81,0003.43,0002.38
2022-06-16 08:42:00,,0828.8,5.00,0.00,30.0,29.0,00.0,38.9,31.9,10.1,0000.0,0007.81,0003.44,0002.40
2022-06-16 08:43:00,,0828.7,5.00,0.00,30.0,29.0,00.0,38.9,31.9,10.2,0000.0,0007.85,0003.46,0002.41
2022-06-16 08:44:00,,0828.7,4.99,0.00,30.1,29.0,00.0,38.9,31.9,10.3,0000.0,0007.93,0003.46,0002.43
2022-06-16 08:45:00,,0829.1,4.99,0.00,30.1,29.0,00.0,38.9,31.9,10.3,0000.0,0008.01,0003.47,0002.47
2022-06-16 08:46:00,,0829.2,5.00,0.00,30.1,29.1,00.0,38.9,32.0,10.3,0000.0,0007.97,0003.48,0002.49
2022-06-16 08:47:00,,0829.1,5.00,0.00,30.1,29.1,00.0,38.9,32.0,10.3,0000.0,0007.96,0003.48,0002.51
2022-06-16 08:48:00,,0829.2,5.00,0.00,30.1,29.1,00.0,38.9,32.0,10.3,0000.0,0008.07,0003.51,0002.53
2022-06-16 08:49:00,,0829.3,4.99,0.00,30.1,29.1,00.0,38.9,32.0,10.3,0000.0,0008.08,0003.53,0002.52
2022-06-16 08:50:00,,0829.0,4.99,0.00,30.1,29.1,00.0,39.0,32.0,10.3,0000.0,0007.97,0003.55,0002.54
2022-06-16 08:51:00,,0829.2,5.01,0.00,30.1,29.1,00.0,39.0,32.0,10.4,0000.0,0007.97,0003.59,0002.54
2022-06-16 08:52:00,,0829.2,5.01,0.00,30.1,29.1,00.0,39.0,32.0,10.4,0000.0,0007.74,0003.59,0002.56
2022-06-16 08:53:00,,0829.2,5.00,0.00,30.1,29.0,00.0,39.0,32.0,10.6,0000.0,0007.75,0003.60,0002.57
2022-06-16 08:54:00,,0829.2,4.99,0.00,30.1,29.0,00.0,39.0,32.0,10.6,0000.0,0007.81,0003.61,0002.58
2022-06-16 08:55:00,,0829.2,5.01,0.00,30.1,29.0,00.0,39.0,32.0,10.7,0000.0,0008.07,0003.62,0002.59
2022-06-16 08:56:00,,0828.9,5.00,0.00,30.1,29.0,00.0,39.0,32.0,10.8,0000.0,0008.40,0003.66,0002.60
2022-06-16 08:57:00,,0829.0,5.00,0.00,30.1,29.0,00.0,39.0,32.0,10.9,0000.0,0008.38,0003.67,0002.59
2022-06-16 08:58:00,,0829.3,5.01,0.00,30.1,29.0,00.0,39.0,32.0,11.0,0000.0,0008.35,0003.67,0002.59
2022-06-16 08:59:00,,0829.2,5.00,0.00,30.1,29.0,00.0,39.0,32.0,11.1,0000.0,0008.41,0003.68,0002.58
